Location: Ottawa
(45.4167°N, 75.7000°W)
Time: 01:46:46
(UTC-04:00)

PCSat - Visible Passes

Search period start: 19 March 2019 00:00
Search period end: 29 March 2019 00:00
Orbit: 786 x 794 km, 67.0° (Epoch: 17 March)

Date Brightness Start Highest point End Pass type
(mag) Time Alt. Az. Time Alt. Az. Time Alt. Az.
19 Mar 11.5 05:47:08 10° S 05:51:47 30° ESE 05:56:27 10° NE visible
20 Mar 11.8 05:16:56 10° SSE 05:21:00 22° ESE 05:25:06 10° ENE visible
21 Mar 12.1 04:47:02 10° SE 04:50:16 16° ESE 04:53:29 10° ENE visible
21 Mar 9.6 06:27:32 10° SW 06:32:57 80° WNW 06:38:25 10° NNE visible
22 Mar 12.3 04:17:56 10° ESE 04:19:33 11° ESE 04:21:10 10° E visible
22 Mar 9.7 05:56:36 10° SSW 06:02:00 78° ESE 06:07:26 10° NE visible
23 Mar 10.1 05:25:48 10° SSW 05:31:05 58° ESE 05:36:25 10° NE visible
24 Mar 10.6 04:56:13 16° S 05:00:13 42° ESE 05:05:19 10° NE visible
25 Mar 11.1 04:26:39 20° SSE 04:29:23 31° ESE 04:34:08 10° NE visible
25 Mar 10.0 06:07:26 10° WSW 06:12:37 45° NW 06:17:50 10° NNE visible
26 Mar 11.4 03:56:59 20° SE 03:58:36 23° ESE 04:02:48 10° ENE visible
26 Mar 9.7 05:37:43 19° SW 05:41:34 58° NW 05:46:57 10° NNE visible
27 Mar 11.7 03:27:12 17° ESE 03:27:51 17° ESE 03:31:13 10° ENE visible
27 Mar 9.5 05:07:56 31° SW 05:10:34 77° WNW 05:16:02 10° NNE visible
28 Mar 12.1 02:57:21 12° E 02:57:21 12° E 02:59:05 10° E visible
28 Mar 9.5 04:38:05 48° SSW 04:39:37 81° ESE 04:45:04 10° NE visible
28 Mar 11.0 06:19:30 10° W 06:23:39 22° NW 06:27:51 10° N visible
